Location: Home
(42.5358°N, 72.7383°W)
Time: 16:44:01
(UTC-05:00)

N. Korean satellite - Pass Details

Date: 31 October 2021
Orbit: 446 x 495 km, 97.3° (Epoch: 07 December)

Event Time Altitude Azimuth Distance (km) Brightness Sun altitude
Rises 06:06:17 0° 12° (NNE) 2,580 10.3 -14.7°
Reaches altitude 10° 06:08:23 10° 13° (NNE) 1,688 9.4 -14.3°
Maximum altitude 06:12:01 84° 100° (E) 493 6.6 -13.7°
Drops below altitude 10° 06:15:34 10° 191° (S) 1,647 9.2 -13.0°
Sets 06:17:35 0° 192° (SSW) 2,512 10.2 -12.7°
